Year,Month,Day,Hour,Minute,Value (Times are PST for insolation in W/m^2)
2012,10,02,00,00,0.00
2012,10,02,00,01,0.00
2012,10,02,00,02,0.00
2012,10,02,00,03,0.00
2012,10,02,00,04,0.00
2012,10,02,00,05,0.00
2012,10,02,00,06,0.00
2012,10,02,00,07,0.00
2012,10,02,00,08,0.00
2012,10,02,00,09,0.00
2012,10,02,00,10,0.00
2012,10,02,00,11,0.00
2012,10,02,00,12,0.00
2012,10,02,00,13,0.00
2012,10,02,00,14,0.00
2012,10,02,00,15,0.00
2012,10,02,00,16,0.00
2012,10,02,00,17,0.00
2012,10,02,00,18,0.00
2012,10,02,00,19,0.00
2012,10,02,00,20,0.00
2012,10,02,00,21,0.00
2012,10,02,00,22,0.00
2012,10,02,00,23,0.00
2012,10,02,00,24,0.00
2012,10,02,00,25,0.00
2012,10,02,00,26,0.00
2012,10,02,00,27,0.00
2012,10,02,00,28,0.00
2012,10,02,00,29,0.00
2012,10,02,00,30,0.00
2012,10,02,00,31,0.00
2012,10,02,00,32,0.00
2012,10,02,00,33,0.00
2012,10,02,00,34,0.00
2012,10,02,00,35,0.00
2012,10,02,00,36,0.00
2012,10,02,00,37,0.00
2012,10,02,00,38,0.00
2012,10,02,00,39,0.00
2012,10,02,00,40,0.00
2012,10,02,00,41,0.00
2012,10,02,00,42,0.00
2012,10,02,00,43,0.00
2012,10,02,00,44,0.00
2012,10,02,00,45,0.00
2012,10,02,00,46,0.00
2012,10,02,00,47,0.00
2012,10,02,00,48,0.00
2012,10,02,00,49,0.00
2012,10,02,00,50,0.00
2012,10,02,00,51,0.00
2012,10,02,00,52,0.00
2012,10,02,00,53,0.00
2012,10,02,00,54,0.00
2012,10,02,00,55,0.00
2012,10,02,00,56,0.00
2012,10,02,00,57,0.00
2012,10,02,00,58,0.00
2012,10,02,00,59,0.00
2012,10,02,01,00,0.00
2012,10,02,01,01,0.00
2012,10,02,01,02,0.00
2012,10,02,01,03,0.00
2012,10,02,01,04,0.00
2012,10,02,01,05,0.00
2012,10,02,01,06,0.00
2012,10,02,01,07,0.00
2012,10,02,01,08,0.00
2012,10,02,01,09,0.00
2012,10,02,01,10,0.00
2012,10,02,01,11,0.00
2012,10,02,01,12,0.00
2012,10,02,01,13,0.00
2012,10,02,01,14,0.00
2012,10,02,01,15,0.00
2012,10,02,01,16,0.00
2012,10,02,01,17,0.00
2012,10,02,01,18,0.00
2012,10,02,01,19,0.00
2012,10,02,01,20,0.00
2012,10,02,01,21,0.00
2012,10,02,01,22,0.00
2012,10,02,01,23,0.00
2012,10,02,01,24,0.00
2012,10,02,01,25,0.00
2012,10,02,01,26,0.00
2012,10,02,01,27,0.00
2012,10,02,01,28,0.00
2012,10,02,01,29,0.00
2012,10,02,01,30,0.00
2012,10,02,01,31,0.00
2012,10,02,01,32,0.00
2012,10,02,01,33,0.00
2012,10,02,01,34,0.00
2012,10,02,01,35,0.00
2012,10,02,01,36,0.00
2012,10,02,01,37,0.00
2012,10,02,01,38,0.00
2012,10,02,01,39,0.00
2012,10,02,01,40,0.00
2012,10,02,01,41,0.00
2012,10,02,01,42,0.00
2012,10,02,01,43,0.00
2012,10,02,01,44,0.00
2012,10,02,01,45,0.00
2012,10,02,01,46,0.00
2012,10,02,01,47,0.00
2012,10,02,01,48,0.00
2012,10,02,01,49,0.00
2012,10,02,01,50,0.00
2012,10,02,01,51,0.00
2012,10,02,01,52,0.00
2012,10,02,01,53,0.00
2012,10,02,01,54,0.00
2012,10,02,01,55,0.00
2012,10,02,01,56,0.00
2012,10,02,01,57,0.00
2012,10,02,01,58,0.00
2012,10,02,01,59,0.00
2012,10,02,02,00,0.00
2012,10,02,02,01,0.00
2012,10,02,02,02,0.00
2012,10,02,02,03,0.00
2012,10,02,02,04,0.00
2012,10,02,02,05,0.00
2012,10,02,02,06,0.00
2012,10,02,02,07,0.00
2012,10,02,02,08,0.00
2012,10,02,02,09,0.00
2012,10,02,02,10,0.00
2012,10,02,02,11,0.00
2012,10,02,02,12,0.00
2012,10,02,02,13,0.00
2012,10,02,02,14,0.00
2012,10,02,02,15,0.00
2012,10,02,02,16,0.00
2012,10,02,02,17,0.00
2012,10,02,02,18,0.00
2012,10,02,02,19,0.00
2012,10,02,02,20,0.00
2012,10,02,02,21,0.00
2012,10,02,02,22,0.00
2012,10,02,02,23,0.00
2012,10,02,02,24,0.00
2012,10,02,02,25,0.00
2012,10,02,02,26,0.00
2012,10,02,02,27,0.00
2012,10,02,02,28,0.00
2012,10,02,02,29,0.00
2012,10,02,02,30,0.00
2012,10,02,02,31,0.00
2012,10,02,02,32,0.00
2012,10,02,02,33,0.00
2012,10,02,02,34,0.00
2012,10,02,02,35,0.00
2012,10,02,02,36,0.00
2012,10,02,02,37,0.00
2012,10,02,02,38,0.00
2012,10,02,02,39,0.00
2012,10,02,02,40,0.00
2012,10,02,02,41,0.00
2012,10,02,02,42,0.00
2012,10,02,02,43,0.00
2012,10,02,02,44,0.00
2012,10,02,02,45,0.00
2012,10,02,02,46,0.00
2012,10,02,02,47,0.00
2012,10,02,02,48,0.00
2012,10,02,02,49,0.00
2012,10,02,02,50,0.00
2012,10,02,02,51,0.00
2012,10,02,02,52,0.00
2012,10,02,02,53,0.00
2012,10,02,02,54,0.00
2012,10,02,02,55,0.00
2012,10,02,02,56,0.00
2012,10,02,02,57,0.00
2012,10,02,02,58,0.00
2012,10,02,02,59,0.00
2012,10,02,03,00,0.00
2012,10,02,03,01,0.00
2012,10,02,03,02,0.00
2012,10,02,03,03,0.00
2012,10,02,03,04,0.00
2012,10,02,03,05,0.00
2012,10,02,03,06,0.00
2012,10,02,03,07,0.00
2012,10,02,03,08,0.00
2012,10,02,03,09,0.00
2012,10,02,03,10,0.00
2012,10,02,03,11,0.00
2012,10,02,03,12,0.00
2012,10,02,03,13,0.00
2012,10,02,03,14,0.00
2012,10,02,03,15,0.00
2012,10,02,03,16,0.00
2012,10,02,03,17,0.00
2012,10,02,03,18,0.00
2012,10,02,03,19,0.00
2012,10,02,03,20,0.00
2012,10,02,03,21,0.00
2012,10,02,03,22,0.00
2012,10,02,03,23,0.00
2012,10,02,03,24,0.00
2012,10,02,03,25,0.00
2012,10,02,03,26,0.00
2012,10,02,03,27,0.00
2012,10,02,03,28,0.00
2012,10,02,03,29,0.00
2012,10,02,03,30,0.00
2012,10,02,03,31,0.00
2012,10,02,03,32,0.00
2012,10,02,03,33,0.00
2012,10,02,03,34,0.00
2012,10,02,03,35,0.00
2012,10,02,03,36,0.00
2012,10,02,03,37,0.00
2012,10,02,03,38,0.00
2012,10,02,03,39,0.00
2012,10,02,03,40,0.00
2012,10,02,03,41,0.00
2012,10,02,03,42,0.00
2012,10,02,03,43,0.00
2012,10,02,03,44,0.00
2012,10,02,03,45,0.00
2012,10,02,03,46,0.00
2012,10,02,03,47,0.00
2012,10,02,03,48,0.00
2012,10,02,03,49,0.00
2012,10,02,03,50,0.00
2012,10,02,03,51,0.00
2012,10,02,03,52,0.00
2012,10,02,03,53,0.00
2012,10,02,03,54,0.00
2012,10,02,03,55,0.00
2012,10,02,03,56,0.00
2012,10,02,03,57,0.00
2012,10,02,03,58,0.00
2012,10,02,03,59,0.00
2012,10,02,04,00,0.00
2012,10,02,04,01,0.00
2012,10,02,04,02,0.00
2012,10,02,04,03,0.00
2012,10,02,04,04,0.00
2012,10,02,04,05,0.00
2012,10,02,04,06,0.00
2012,10,02,04,07,0.00
2012,10,02,04,08,0.00
2012,10,02,04,09,0.00
2012,10,02,04,10,0.00
2012,10,02,04,11,0.00
2012,10,02,04,12,0.00
2012,10,02,04,13,0.00
2012,10,02,04,14,0.00
2012,10,02,04,15,0.00
2012,10,02,04,16,0.00
2012,10,02,04,17,0.00
2012,10,02,04,18,0.00
2012,10,02,04,19,0.00
2012,10,02,04,20,0.00
2012,10,02,04,21,0.00
2012,10,02,04,22,0.00
2012,10,02,04,23,0.00
2012,10,02,04,24,0.00
2012,10,02,04,25,0.00
2012,10,02,04,26,0.00
2012,10,02,04,27,0.00
2012,10,02,04,28,0.00
2012,10,02,04,29,0.00
2012,10,02,04,30,0.00
2012,10,02,04,31,0.00
2012,10,02,04,32,0.00
2012,10,02,04,33,0.00
2012,10,02,04,34,0.00
2012,10,02,04,35,0.00
2012,10,02,04,36,0.00
2012,10,02,04,37,0.00
2012,10,02,04,38,0.00
2012,10,02,04,39,0.00
2012,10,02,04,40,0.00
2012,10,02,04,41,0.00
2012,10,02,04,42,0.00
2012,10,02,04,43,0.00
2012,10,02,04,44,0.00
2012,10,02,04,45,0.00
2012,10,02,04,46,0.00
2012,10,02,04,47,0.00
2012,10,02,04,48,0.00
2012,10,02,04,49,0.00
2012,10,02,04,50,0.00
2012,10,02,04,51,0.00
2012,10,02,04,52,0.00
2012,10,02,04,53,0.00
2012,10,02,04,54,0.00
2012,10,02,04,55,0.00
2012,10,02,04,56,0.00
2012,10,02,04,57,0.00
2012,10,02,04,58,0.00
2012,10,02,04,59,0.00
2012,10,02,05,00,0.00
2012,10,02,05,01,0.00
2012,10,02,05,02,0.00
2012,10,02,05,03,0.00
2012,10,02,05,04,0.00
2012,10,02,05,05,0.00
2012,10,02,05,06,0.00
2012,10,02,05,07,0.00
2012,10,02,05,08,0.00
2012,10,02,05,09,0.00
2012,10,02,05,10,0.00
2012,10,02,05,11,0.00
2012,10,02,05,12,0.00
2012,10,02,05,13,0.00
2012,10,02,05,14,0.00
2012,10,02,05,15,0.00
2012,10,02,05,16,0.00
2012,10,02,05,17,0.00
2012,10,02,05,18,0.00
2012,10,02,05,19,0.00
2012,10,02,05,20,0.00
2012,10,02,05,21,0.00
2012,10,02,05,22,0.00
2012,10,02,05,23,0.00
2012,10,02,05,24,0.00
2012,10,02,05,25,0.00
2012,10,02,05,26,0.00
2012,10,02,05,27,0.00
2012,10,02,05,28,0.00
2012,10,02,05,29,0.00
2012,10,02,05,30,0.00
2012,10,02,05,31,0.00
2012,10,02,05,32,0.00
2012,10,02,05,33,0.00
2012,10,02,05,34,0.00
2012,10,02,05,35,0.00
2012,10,02,05,36,0.00
2012,10,02,05,37,0.00
2012,10,02,05,38,0.00
2012,10,02,05,39,0.00
2012,10,02,05,40,0.00
2012,10,02,05,41,0.00
2012,10,02,05,42,0.00
2012,10,02,05,43,0.00
2012,10,02,05,44,0.00
2012,10,02,05,45,0.00
2012,10,02,05,46,0.00
2012,10,02,05,47,0.00
2012,10,02,05,48,0.00
2012,10,02,05,49,0.00
2012,10,02,05,50,0.00
2012,10,02,05,51,0.00
2012,10,02,05,52,0.00
2012,10,02,05,53,0.00
2012,10,02,05,54,0.00
2012,10,02,05,55,0.00
2012,10,02,05,56,0.00
2012,10,02,05,57,0.00
2012,10,02,05,58,0.00
2012,10,02,05,59,0.00
2012,10,02,06,00,0.00
2012,10,02,06,01,0.00
2012,10,02,06,02,0.00
2012,10,02,06,03,0.00
2012,10,02,06,04,0.00
2012,10,02,06,05,0.00
2012,10,02,06,06,0.00
2012,10,02,06,07,0.00
2012,10,02,06,08,0.00
2012,10,02,06,09,0.00
2012,10,02,06,10,0.00
2012,10,02,06,11,0.00
2012,10,02,06,12,0.00
2012,10,02,06,13,0.00
2012,10,02,06,14,0.00
2012,10,02,06,15,0.00
2012,10,02,06,16,0.00
2012,10,02,06,17,0.00
2012,10,02,06,18,0.00
2012,10,02,06,19,0.00
2012,10,02,06,20,0.00
2012,10,02,06,21,0.00
2012,10,02,06,22,0.00
2012,10,02,06,23,0.00
2012,10,02,06,24,0.00
2012,10,02,06,25,0.00
2012,10,02,06,26,0.00
2012,10,02,06,27,0.00
2012,10,02,06,28,0.00
2012,10,02,06,29,0.00
2012,10,02,06,30,0.00
2012,10,02,06,31,0.00
2012,10,02,06,32,0.00
2012,10,02,06,33,0.00
2012,10,02,06,34,0.00
2012,10,02,06,35,0.00
2012,10,02,06,36,0.00
2012,10,02,06,37,0.00
2012,10,02,06,38,0.00
2012,10,02,06,39,0.00
2012,10,02,06,40,0.00
2012,10,02,06,41,0.00
2012,10,02,06,42,0.00
2012,10,02,06,43,0.00
2012,10,02,06,44,0.00
2012,10,02,06,45,0.00
2012,10,02,06,46,0.00
2012,10,02,06,47,0.00
2012,10,02,06,48,0.00
2012,10,02,06,49,0.00
2012,10,02,06,50,0.00
2012,10,02,06,51,0.00
2012,10,02,06,52,0.00
2012,10,02,06,53,0.00
2012,10,02,06,54,0.00
2012,10,02,06,55,0.00
2012,10,02,06,56,0.00
2012,10,02,06,57,0.00
2012,10,02,06,58,0.00
2012,10,02,06,59,0.00
2012,10,02,07,00,0.00
2012,10,02,07,01,0.00
2012,10,02,07,02,0.00
2012,10,02,07,03,0.00
2012,10,02,07,04,0.00
2012,10,02,07,05,0.00
2012,10,02,07,06,0.00
2012,10,02,07,07,0.00
2012,10,02,07,08,0.00
2012,10,02,07,09,0.00
2012,10,02,07,10,0.00
2012,10,02,07,11,0.00
2012,10,02,07,12,4.80
2012,10,02,07,13,5.00
2012,10,02,07,14,5.00
2012,10,02,07,15,5.00
2012,10,02,07,16,6.20
2012,10,02,07,17,7.00
2012,10,02,07,18,7.00
2012,10,02,07,19,7.20
2012,10,02,07,20,9.00
2012,10,02,07,21,9.00
2012,10,02,07,22,9.00
2012,10,02,07,23,9.00
2012,10,02,07,24,10.50
2012,10,02,07,25,11.00
2012,10,02,07,26,11.00
2012,10,02,07,27,11.20
2012,10,02,07,28,12.00
2012,10,02,07,29,12.00
2012,10,02,07,30,12.00
2012,10,02,07,31,13.50
2012,10,02,07,32,14.00
2012,10,02,07,33,14.30
2012,10,02,07,34,16.00
2012,10,02,07,35,16.00
2012,10,02,07,36,16.00
2012,10,02,07,37,17.20
2012,10,02,07,38,18.00
2012,10,02,07,39,18.00
2012,10,02,07,40,19.00
2012,10,02,07,41,19.00
2012,10,02,07,42,19.00
2012,10,02,07,43,19.00
2012,10,02,07,44,20.20
2012,10,02,07,45,21.00
2012,10,02,07,46,21.00
2012,10,02,07,47,23.00
2012,10,02,07,48,23.60
2012,10,02,07,49,32.10
2012,10,02,07,50,49.40
2012,10,02,07,51,58.40
2012,10,02,07,52,60.00
2012,10,02,07,53,62.70
2012,10,02,07,54,61.80
2012,10,02,07,55,50.20
2012,10,02,07,56,44.20
2012,10,02,07,57,33.80
2012,10,02,07,58,28.00
2012,10,02,07,59,31.50
2012,10,02,08,00,34.70
2012,10,02,08,01,34.50
2012,10,02,08,02,47.00
2012,10,02,08,03,46.70
2012,10,02,08,04,43.30
2012,10,02,08,05,43.60
2012,10,02,08,06,41.10
2012,10,02,08,07,33.00
2012,10,02,08,08,30.30
2012,10,02,08,09,32.00
2012,10,02,08,10,32.00
2012,10,02,08,11,32.50
2012,10,02,08,12,33.00
2012,10,02,08,13,33.00
2012,10,02,08,14,33.00
2012,10,02,08,15,33.00
2012,10,02,08,16,33.00
2012,10,02,08,17,33.00
2012,10,02,08,18,33.00
2012,10,02,08,19,33.00
2012,10,02,08,20,33.00
2012,10,02,08,21,33.00
2012,10,02,08,22,34.90
2012,10,02,08,23,35.40
2012,10,02,08,24,37.00
2012,10,02,08,25,39.20
2012,10,02,08,26,44.40
2012,10,02,08,27,41.80
2012,10,02,08,28,43.40
2012,10,02,08,29,44.70
2012,10,02,08,30,51.80
2012,10,02,08,31,57.20
2012,10,02,08,32,73.00
2012,10,02,08,33,109.30
2012,10,02,08,34,146.60
2012,10,02,08,35,160.90
2012,10,02,08,36,147.40
2012,10,02,08,37,132.20
2012,10,02,08,38,153.90
2012,10,02,08,39,150.20
2012,10,02,08,40,106.10
2012,10,02,08,41,78.50
2012,10,02,08,42,82.50
2012,10,02,08,43,110.90
2012,10,02,08,44,163.00
2012,10,02,08,45,183.70
2012,10,02,08,46,178.30
2012,10,02,08,47,155.20
2012,10,02,08,48,99.50
2012,10,02,08,49,65.30
2012,10,02,08,50,78.90
2012,10,02,08,51,70.40
2012,10,02,08,52,70.20
2012,10,02,08,53,67.00
2012,10,02,08,54,68.30
2012,10,02,08,55,74.20
2012,10,02,08,56,76.80
2012,10,02,08,57,83.00
2012,10,02,08,58,83.20
2012,10,02,08,59,88.60
2012,10,02,09,00,105.50
2012,10,02,09,01,139.40
2012,10,02,09,02,202.20
2012,10,02,09,03,218.00
2012,10,02,09,04,106.50
2012,10,02,09,05,99.80
2012,10,02,09,06,90.60
2012,10,02,09,07,88.00
2012,10,02,09,08,80.20
2012,10,02,09,09,89.60
2012,10,02,09,10,107.00
2012,10,02,09,11,107.70
2012,10,02,09,12,108.80
2012,10,02,09,13,90.60
2012,10,02,09,14,131.00
2012,10,02,09,15,122.00
2012,10,02,09,16,86.00
2012,10,02,09,17,144.60
2012,10,02,09,18,169.00
2012,10,02,09,19,294.40
2012,10,02,09,20,288.10
2012,10,02,09,21,259.00
2012,10,02,09,22,274.00
2012,10,02,09,23,302.00
2012,10,02,09,24,302.00
2012,10,02,09,25,219.00
2012,10,02,09,26,288.00
2012,10,02,09,27,216.20
2012,10,02,09,28,83.50
2012,10,02,09,29,89.40
2012,10,02,09,30,98.20
2012,10,02,09,31,105.90
2012,10,02,09,32,111.00
2012,10,02,09,33,113.20
2012,10,02,09,34,113.70
2012,10,02,09,35,113.00
2012,10,02,09,36,113.00
2012,10,02,09,37,113.80
2012,10,02,09,38,115.70
2012,10,02,09,39,116.20
2012,10,02,09,40,118.60
2012,10,02,09,41,123.10
2012,10,02,09,42,129.20
2012,10,02,09,43,133.20
2012,10,02,09,44,136.20
2012,10,02,09,45,142.90
2012,10,02,09,46,145.90
2012,10,02,09,47,145.50
2012,10,02,09,48,142.90
2012,10,02,09,49,139.00
2012,10,02,09,50,135.80
2012,10,02,09,51,134.30
2012,10,02,09,52,134.00
2012,10,02,09,53,130.50
2012,10,02,09,54,136.80
2012,10,02,09,55,146.10
2012,10,02,09,56,156.50
2012,10,02,09,57,161.90
2012,10,02,09,58,167.40
2012,10,02,09,59,171.60
2012,10,02,10,00,174.00
2012,10,02,10,01,173.50
2012,10,02,10,02,172.00
2012,10,02,10,03,173.00
2012,10,02,10,04,174.00
2012,10,02,10,05,174.00
2012,10,02,10,06,174.00
2012,10,02,10,07,177.40
2012,10,02,10,08,171.80
2012,10,02,10,09,169.60
2012,10,02,10,10,165.00
2012,10,02,10,11,159.90
2012,10,02,10,12,156.50
2012,10,02,10,13,156.00
2012,10,02,10,14,158.30
2012,10,02,10,15,162.20
2012,10,02,10,16,162.60
2012,10,02,10,17,162.50
2012,10,02,10,18,164.30
2012,10,02,10,19,168.00
2012,10,02,10,20,169.00
2012,10,02,10,21,169.00
2012,10,02,10,22,168.60
2012,10,02,10,23,166.30
2012,10,02,10,24,165.00
2012,10,02,10,25,165.00
2012,10,02,10,26,165.00
2012,10,02,10,27,165.00
2012,10,02,10,28,165.00
2012,10,02,10,29,165.00
2012,10,02,10,30,165.00
2012,10,02,10,31,163.60
2012,10,02,10,32,160.80
2012,10,02,10,33,157.00
2012,10,02,10,34,155.10
2012,10,02,10,35,155.10
2012,10,02,10,36,156.00
2012,10,02,10,37,156.00
2012,10,02,10,38,157.00
2012,10,02,10,39,159.30
2012,10,02,10,40,160.00
2012,10,02,10,41,158.20
2012,10,02,10,42,156.10
2012,10,02,10,43,156.00
2012,10,02,10,44,156.70
2012,10,02,10,45,156.50
2012,10,02,10,46,152.60
2012,10,02,10,47,145.80
2012,10,02,10,48,141.40
2012,10,02,10,49,138.80
2012,10,02,10,50,135.90
2012,10,02,10,51,130.20
2012,10,02,10,52,124.30
2012,10,02,10,53,118.00
2012,10,02,10,54,112.20
2012,10,02,10,55,109.30
2012,10,02,10,56,104.50
2012,10,02,10,57,98.20
2012,10,02,10,58,91.90
2012,10,02,10,59,88.00
2012,10,02,11,00,84.80
2012,10,02,11,01,81.90
2012,10,02,11,02,81.00
2012,10,02,11,03,79.40
2012,10,02,11,04,81.00
2012,10,02,11,05,81.00
2012,10,02,11,06,81.00
2012,10,02,11,07,82.20
2012,10,02,11,08,83.70
2012,10,02,11,09,84.00
2012,10,02,11,10,84.00
2012,10,02,11,11,84.50
2012,10,02,11,12,86.80
2012,10,02,11,13,89.50
2012,10,02,11,14,93.40
2012,10,02,11,15,97.20
2012,10,02,11,16,101.40
2012,10,02,11,17,105.00
2012,10,02,11,18,107.00
2012,10,02,11,19,106.30
2012,10,02,11,20,103.60
2012,10,02,11,21,102.00
2012,10,02,11,22,98.50
2012,10,02,11,23,97.80
2012,10,02,11,24,102.10
2012,10,02,11,25,106.70
2012,10,02,11,26,117.20
2012,10,02,11,27,133.60
2012,10,02,11,28,154.80
2012,10,02,11,29,171.00
2012,10,02,11,30,174.00
2012,10,02,11,31,170.80
2012,10,02,11,32,165.30
2012,10,02,11,33,155.90
2012,10,02,11,34,144.20
2012,10,02,11,35,134.70
2012,10,02,11,36,129.00
2012,10,02,11,37,123.80
2012,10,02,11,38,117.60
2012,10,02,11,39,114.00
2012,10,02,11,40,115.40
2012,10,02,11,41,120.50
2012,10,02,11,42,128.40
2012,10,02,11,43,140.60
2012,10,02,11,44,158.30
2012,10,02,11,45,189.00
2012,10,02,11,46,221.60
2012,10,02,11,47,253.40
2012,10,02,11,48,279.10
2012,10,02,11,49,294.60
2012,10,02,11,50,303.90
2012,10,02,11,51,310.20
2012,10,02,11,52,316.50
2012,10,02,11,53,330.50
2012,10,02,11,54,330.20
2012,10,02,11,55,327.00
2012,10,02,11,56,324.60
2012,10,02,11,57,324.40
2012,10,02,11,58,325.00
2012,10,02,11,59,328.60
2012,10,02,12,00,326.00
2012,10,02,12,01,329.00
2012,10,02,12,02,327.10
2012,10,02,12,03,323.20
2012,10,02,12,04,320.50
2012,10,02,12,05,318.30
2012,10,02,12,06,316.20
2012,10,02,12,07,317.50
2012,10,02,12,08,315.00
2012,10,02,12,09,309.50
2012,10,02,12,10,303.40
2012,10,02,12,11,304.90
2012,10,02,12,12,313.60
2012,10,02,12,13,329.90
2012,10,02,12,14,338.00
2012,10,02,12,15,356.20
2012,10,02,12,16,434.00
2012,10,02,12,17,434.50
2012,10,02,12,18,422.20
2012,10,02,12,19,427.00
2012,10,02,12,20,506.00
2012,10,02,12,21,585.00
2012,10,02,12,22,691.40
2012,10,02,12,23,889.00
2012,10,02,12,24,889.00
2012,10,02,12,25,538.80
2012,10,02,12,26,417.70
2012,10,02,12,27,446.80
2012,10,02,12,28,476.70
2012,10,02,12,29,496.80
2012,10,02,12,30,504.50
2012,10,02,12,31,502.80
2012,10,02,12,32,493.50
2012,10,02,12,33,531.40
2012,10,02,12,34,476.20
2012,10,02,12,35,472.00
2012,10,02,12,36,459.20
2012,10,02,12,37,458.60
2012,10,02,12,38,441.40
2012,10,02,12,39,415.90
2012,10,02,12,40,391.00
2012,10,02,12,41,378.00
2012,10,02,12,42,370.90
2012,10,02,12,43,360.90
2012,10,02,12,44,355.00
2012,10,02,12,45,346.70
2012,10,02,12,46,339.60
2012,10,02,12,47,340.70
2012,10,02,12,48,343.50
2012,10,02,12,49,348.00
2012,10,02,12,50,351.10
2012,10,02,12,51,358.40
2012,10,02,12,52,362.40
2012,10,02,12,53,365.50
2012,10,02,12,54,366.90
2012,10,02,12,55,364.20
2012,10,02,12,56,367.20
2012,10,02,12,57,369.50
2012,10,02,12,58,363.00
2012,10,02,12,59,354.80
2012,10,02,13,00,350.50
2012,10,02,13,01,350.00
2012,10,02,13,02,360.10
2012,10,02,13,03,373.50
2012,10,02,13,04,395.00
2012,10,02,13,05,430.00
2012,10,02,13,06,497.40
2012,10,02,13,07,552.60
2012,10,02,13,08,578.80
2012,10,02,13,09,570.90
2012,10,02,13,10,474.50
2012,10,02,13,11,491.10
2012,10,02,13,12,464.50
2012,10,02,13,13,412.00
2012,10,02,13,14,384.00
2012,10,02,13,15,370.00
2012,10,02,13,16,358.20
2012,10,02,13,17,341.20
2012,10,02,13,18,338.20
2012,10,02,13,19,358.10
2012,10,02,13,20,373.60
2012,10,02,13,21,353.00
2012,10,02,13,22,412.30
2012,10,02,13,23,332.00
2012,10,02,13,24,329.20
2012,10,02,13,25,334.10
2012,10,02,13,26,365.00
2012,10,02,13,27,339.60
2012,10,02,13,28,346.80
2012,10,02,13,29,397.00
2012,10,02,13,30,404.00
2012,10,02,13,31,460.20
2012,10,02,13,32,627.30
2012,10,02,13,33,620.50
2012,10,02,13,34,615.70
2012,10,02,13,35,618.00
2012,10,02,13,36,619.00
2012,10,02,13,37,622.50
2012,10,02,13,38,630.20
2012,10,02,13,39,634.30
2012,10,02,13,40,627.00
2012,10,02,13,41,611.40
2012,10,02,13,42,593.00
2012,10,02,13,43,585.50
2012,10,02,13,44,582.20
2012,10,02,13,45,584.00
2012,10,02,13,46,584.00
2012,10,02,13,47,583.00
2012,10,02,13,48,583.20
2012,10,02,13,49,584.00
2012,10,02,13,50,582.20
2012,10,02,13,51,580.10
2012,10,02,13,52,580.50
2012,10,02,13,53,582.00
2012,10,02,13,54,581.10
2012,10,02,13,55,578.80
2012,10,02,13,56,577.20
2012,10,02,13,57,577.00
2012,10,02,13,58,577.20
2012,10,02,13,59,576.90
2012,10,02,14,00,573.00
2012,10,02,14,01,573.00
2012,10,02,14,02,573.00
2012,10,02,14,03,573.00
2012,10,02,14,04,571.30
2012,10,02,14,05,556.50
2012,10,02,14,06,519.20
2012,10,02,14,07,575.80
2012,10,02,14,08,566.00
2012,10,02,14,09,564.00
2012,10,02,14,10,564.00
2012,10,02,14,11,563.20
2012,10,02,14,12,564.00
2012,10,02,14,13,564.00
2012,10,02,14,14,563.70
2012,10,02,14,15,562.00
2012,10,02,14,16,562.20
2012,10,02,14,17,561.50
2012,10,02,14,18,561.00
2012,10,02,14,19,559.00
2012,10,02,14,20,558.50
2012,10,02,14,21,556.20
2012,10,02,14,22,555.00
2012,10,02,14,23,554.40
2012,10,02,14,24,554.00
2012,10,02,14,25,554.00
2012,10,02,14,26,552.00
2012,10,02,14,27,551.50
2012,10,02,14,28,550.00
2012,10,02,14,29,550.00
2012,10,02,14,30,548.80
2012,10,02,14,31,547.20
2012,10,02,14,32,545.30
2012,10,02,14,33,545.00
2012,10,02,14,34,544.50
2012,10,02,14,35,543.00
2012,10,02,14,36,543.00
2012,10,02,14,37,541.80
2012,10,02,14,38,541.00
2012,10,02,14,39,538.40
2012,10,02,14,40,537.80
2012,10,02,14,41,536.00
2012,10,02,14,42,535.30
2012,10,02,14,43,533.50
2012,10,02,14,44,531.80
2012,10,02,14,45,532.50
2012,10,02,14,46,529.60
2012,10,02,14,47,528.70
2012,10,02,14,48,527.00
2012,10,02,14,49,526.60
2012,10,02,14,50,525.00
2012,10,02,14,51,522.70
2012,10,02,14,52,522.00
2012,10,02,14,53,520.20
2012,10,02,14,54,518.70
2012,10,02,14,55,515.40
2012,10,02,14,56,515.20
2012,10,02,14,57,512.50
2012,10,02,14,58,513.00
2012,10,02,14,59,509.20
2012,10,02,15,00,508.00
2012,10,02,15,01,505.80
2012,10,02,15,02,503.40
2012,10,02,15,03,501.00
2012,10,02,15,04,500.00
2012,10,02,15,05,497.80
2012,10,02,15,06,497.00
2012,10,02,15,07,497.00
2012,10,02,15,08,496.00
2012,10,02,15,09,495.60
2012,10,02,15,10,492.60
2012,10,02,15,11,489.50
2012,10,02,15,12,486.50
2012,10,02,15,13,485.00
2012,10,02,15,14,483.20
2012,10,02,15,15,481.80
2012,10,02,15,16,479.50
2012,10,02,15,17,477.30
2012,10,02,15,18,476.00
2012,10,02,15,19,474.30
2012,10,02,15,20,471.50
2012,10,02,15,21,469.30
2012,10,02,15,22,467.70
2012,10,02,15,23,465.50
2012,10,02,15,24,463.30
2012,10,02,15,25,461.50
2012,10,02,15,26,459.80
2012,10,02,15,27,459.00
2012,10,02,15,28,457.30
2012,10,02,15,29,456.80
2012,10,02,15,30,454.40
2012,10,02,15,31,452.00
2012,10,02,15,32,451.10
2012,10,02,15,33,447.60
2012,10,02,15,34,447.50
2012,10,02,15,35,445.50
2012,10,02,15,36,441.00
2012,10,02,15,37,440.50
2012,10,02,15,38,438.60
2012,10,02,15,39,438.00
2012,10,02,15,40,435.50
2012,10,02,15,41,432.50
2012,10,02,15,42,432.00
2012,10,02,15,43,431.50
2012,10,02,15,44,426.50
2012,10,02,15,45,424.00
2012,10,02,15,46,416.00
2012,10,02,15,47,410.00
2012,10,02,15,48,410.00
2012,10,02,15,49,179.60
2012,10,02,15,50,171.90
2012,10,02,15,51,154.00
2012,10,02,15,52,163.40
2012,10,02,15,53,120.50
2012,10,02,15,54,66.80
2012,10,02,15,55,69.40
2012,10,02,15,56,104.10
2012,10,02,15,57,162.20
2012,10,02,15,58,142.80
2012,10,02,15,59,84.10
2012,10,02,16,00,56.50
2012,10,02,16,01,53.00
2012,10,02,16,02,55.30
2012,10,02,16,03,67.90
2012,10,02,16,04,70.60
2012,10,02,16,05,76.00
2012,10,02,16,06,65.10
2012,10,02,16,07,57.00
2012,10,02,16,08,61.90
2012,10,02,16,09,56.20
2012,10,02,16,10,59.10
2012,10,02,16,11,74.00
2012,10,02,16,12,84.20
2012,10,02,16,13,122.60
2012,10,02,16,14,118.00
2012,10,02,16,15,80.80
2012,10,02,16,16,54.50
2012,10,02,16,17,54.00
2012,10,02,16,18,54.00
2012,10,02,16,19,54.50
2012,10,02,16,20,56.00
2012,10,02,16,21,56.00
2012,10,02,16,22,56.00
2012,10,02,16,23,57.40
2012,10,02,16,24,58.00
2012,10,02,16,25,57.80
2012,10,02,16,26,56.00
2012,10,02,16,27,58.10
2012,10,02,16,28,65.30
2012,10,02,16,29,69.00
2012,10,02,16,30,57.90
2012,10,02,16,31,54.00
2012,10,02,16,32,53.90
2012,10,02,16,33,53.20
2012,10,02,16,34,54.00
2012,10,02,16,35,52.50
2012,10,02,16,36,51.00
2012,10,02,16,37,51.00
2012,10,02,16,38,51.00
2012,10,02,16,39,51.20
2012,10,02,16,40,55.50
2012,10,02,16,41,66.80
2012,10,02,16,42,68.00
2012,10,02,16,43,58.20
2012,10,02,16,44,66.50
2012,10,02,16,45,75.90
2012,10,02,16,46,58.50
2012,10,02,16,47,54.00
2012,10,02,16,48,53.60
2012,10,02,16,49,52.00
2012,10,02,16,50,51.00
2012,10,02,16,51,49.60
2012,10,02,16,52,49.00
2012,10,02,16,53,49.00
2012,10,02,16,54,49.40
2012,10,02,16,55,51.00
2012,10,02,16,56,51.90
2012,10,02,16,57,51.80
2012,10,02,16,58,51.00
2012,10,02,16,59,49.30
2012,10,02,17,00,47.00
2012,10,02,17,01,47.00
2012,10,02,17,02,45.80
2012,10,02,17,03,44.00
2012,10,02,17,04,45.20
2012,10,02,17,05,46.00
2012,10,02,17,06,60.50
2012,10,02,17,07,62.10
2012,10,02,17,08,60.20
2012,10,02,17,09,97.60
2012,10,02,17,10,163.50
2012,10,02,17,11,205.80
2012,10,02,17,12,211.50
2012,10,02,17,13,207.60
2012,10,02,17,14,161.60
2012,10,02,17,15,106.50
2012,10,02,17,16,72.40
2012,10,02,17,17,57.00
2012,10,02,17,18,47.00
2012,10,02,17,19,41.80
2012,10,02,17,20,47.70